Hourly Data Report for September 18, 2017

All times are specified in Local Standard Time (LST). Add 1 hour to adjust for Daylight Saving Time where and when it is observed.

QIKIQTARJUAQ A
NUNAVUT

67°32'48.000" N
64°01'54.000" W
5.50 m
2400577
YVM

Download Data

Hourly Data (September 2017)
Hourly Data Report for September 18, 2017
Temp Definition
°C
Dew Point Temp Definition
°C
Rel Hum Definition
%
Wind Dir Definition
10's deg

Wind Spd Definition
km/h
Visibility Definition
km
Stn Press Definition
kPa
Hmdx Definition


Wind Chill Definition


Weather Definition


TIME
00:00 Legend Double Dagger -0.1 -2.2 86 20 13 16.1 101.54   -4 LegendNANA
01:00 Legend Double Dagger -0.1 -2.7 83 19 8 16.1 101.54   -3 LegendNANA
02:00 Legend Double Dagger 0.1 -3.8 75 21 18 16.1 101.54     LegendNANA
03:00 Legend Double Dagger -0.2 -3.4 79 20 17 16.1 101.54   -5 LegendNANA
04:00 Legend Double Dagger -0.4 -4.5 74 20 15 16.1 101.53   -5 LegendNANA
05:00 Legend Double Dagger 0.3 -2.6 81 20 9 16.1 101.54     LegendNANA
06:00 Legend Double Dagger 0.8 -1.7 84 19 15 16.1 101.55     LegendNANA
07:00 Legend Double Dagger 1.0 -1.5 83 20 11 16.1 101.57     LegendNANA
08:00 Legend Double Dagger 1.8 -2.3 74 17 5 16.1 101.54     LegendNANA
09:00 Legend Double Dagger 2.5 -1.4 76 23 15 16.1 101.47     LegendNANA
10:00 Legend Double Dagger 2.9 -0.9 76 20 21 16.1 101.42     LegendNANA
11:00 Legend Double Dagger 3.7 -1.3 70 19 17 16.1 101.39     LegendNANA
12:00 Legend Double Dagger 4.3 -0.3 72 22 22 16.1 101.37     LegendNANA
13:00 Legend Double Dagger 4.6 -0.6 69 22 21 16.1 101.36     LegendNANA
14:00 Legend Double Dagger 4.5 -0.8 68 20 18 16.1 101.35     LegendNANA
15:00 Legend Double Dagger 5.0 -1.1 65 20 22 16.1 101.34     LegendNANA
16:00 Legend Double Dagger 4.2 -1.5 66 20 24 16.1 101.30     LegendNANA
17:00 Legend Double Dagger 3.9 -1.1 70 20 13 16.1 101.28     LegendNANA
18:00 Legend Double Dagger 4.6 -0.2 71 20 17 16.1 101.26     LegendNANA
19:00 Legend Double Dagger 4.8 -0.7 67 19 17 16.1 101.26     LegendNANA
20:00 Legend Double Dagger 5.1 -0.8 66 20 17 16.1 101.26     LegendNANA
21:00 Legend Double Dagger 4.6 -0.3 70 20 17 16.1 101.26     LegendNANA
22:00 Legend Double Dagger 4.4 0.0 73 21 18 16.1 101.24     LegendNANA
23:00 Legend Double Dagger 4.3 -0.3 72 LegendMM 4 16.1 101.26     LegendNANA

Notes on Data Quality.

Legend

  • E = Estimated
  • M = Missing
  • NA = Not Available
  • ‡ = Partner data that is not subject to review by the National Climate Archives
Date modified: